Stündliche Wetter Bolshie Kibya-Kozi

Heute, 30 September, Mittwoch

Zeit Temperatur Niederschläge Wind Luftdruck Luftfeuchtigkeit
00:00 +10°C° 0 mm 2 m/S 765 mmHg 72%
01:00 +10°C° 0 mm 2 m/S 765 mmHg 73%
02:00 +10°C° 0 mm 2 m/S 765 mmHg 75%
03:00 +9°C° 0 mm 2 m/S 765 mmHg 76%
04:00 +9°C° 0 mm 2 m/S 765 mmHg 78%
05:00 +9°C° 0 mm 2 m/S 765 mmHg 80%
06:00 +9°C° 0 mm 2 m/S 765 mmHg 82%
07:00 +10°C° 0 mm 2 m/S 765 mmHg 79%
08:00 +13°C° 0 mm 2 m/S 765 mmHg 77%
09:00 +14°C° 0 mm 2 m/S 765 mmHg 75%
10:00 +15°C° 0 mm 2 m/S 765 mmHg 71%
11:00 +16°C° 0 mm 2 m/S 765 mmHg 68%
12:00 +17°C° 0 mm 3 m/S 765 mmHg 65%
13:00 +17°C° 0 mm 3 m/S 764 mmHg 65%
14:00 +17°C° 0 mm 2 m/S 764 mmHg 66%
15:00 +18°C° 0 mm 2 m/S 764 mmHg 66%
16:00 +16°C° 0 mm 2 m/S 764 mmHg 71%
17:00 +15°C° 0 mm 2 m/S 764 mmHg 77%
18:00 +14°C° 0 mm 2 m/S 764 mmHg 82%
19:00 +13°C° 0 mm 2 m/S 764 mmHg 83%
20:00 +13°C° 0 mm 2 m/S 764 mmHg 84%
21:00 +12°C° 0 mm 2 m/S 764 mmHg 86%
22:00 +12°C° 0 mm 2 m/S 764 mmHg 86%
23:00 +12°C° 0 mm 2 m/S 764 mmHg 86%

Morgen, 1 Oktober, Donnerstag

Zeit Temperatur Niederschläge Wind Luftdruck Luftfeuchtigkeit
00:00 +12°C° 0 mm 2 m/S 764 mmHg 86%
01:00 +12°C° 0 mm 2 m/S 764 mmHg 87%
02:00 +12°C° 0 mm 1 m/S 765 mmHg 88%
03:00 +11°C° 0 mm 1 m/S 765 mmHg 89%
04:00 +11°C° 0 mm 1 m/S 765 mmHg 89%
05:00 +11°C° 0 mm 1 m/S 764 mmHg 90%
06:00 +11°C° 0 mm 1 m/S 764 mmHg 90%
07:00 +12°C° 0 mm 1 m/S 764 mmHg 85%
08:00 +14°C° 0 mm 1 m/S 764 mmHg 80%
09:00 +15°C° 0 mm 2 m/S 765 mmHg 75%
10:00 +16°C° 0 mm 2 m/S 764 mmHg 70%
11:00 +17°C° 0 mm 2 m/S 764 mmHg 64%
12:00 +18°C° 0 mm 2 m/S 764 mmHg 59%
13:00 +18°C° 0 mm 2 m/S 764 mmHg 58%
14:00 +19°C° 0 mm 1 m/S 764 mmHg 58%
15:00 +19°C° 0 mm 1 m/S 764 mmHg 57%
16:00 +18°C° 0 mm 1 m/S 764 mmHg 62%
17:00 +14°C° 0 mm 0 m/S 763 mmHg 67%
18:00 +13°C° 0 mm 0 m/S 763 mmHg 72%
19:00 +12°C° 0 mm 0 m/S 763 mmHg 74%
20:00 +12°C° 0 mm 0 m/S 763 mmHg 75%
21:00 +12°C° 0 mm 0 m/S 763 mmHg 77%
22:00 +11°C° 0 mm 0 m/S 763 mmHg 79%
23:00 +11°C° 0 mm 0 m/S 763 mmHg 81%

übermorgen, 2 Oktober, Freitag

Zeit Temperatur Niederschläge Wind Luftdruck Luftfeuchtigkeit
00:00 +11°C° 0 mm 0 m/S 763 mmHg 83%
01:00 +10°C° 0 mm 0 m/S 763 mmHg 83%
02:00 +10°C° 0 mm 0 m/S 764 mmHg 84%
03:00 +10°C° 0 mm 0 m/S 764 mmHg 84%
04:00 +10°C° 0 mm 0 m/S 764 mmHg 84%
05:00 +9°C° 0 mm 0 m/S 763 mmHg 85%
06:00 +9°C° 0 mm 0 m/S 763 mmHg 85%
07:00 +11°C° 0 mm 0 m/S 764 mmHg 79%
08:00 +12°C° 0 mm 0 m/S 764 mmHg 73%
09:00 +14°C° 0 mm 0 m/S 764 mmHg 67%
10:00 +15°C° 0 mm 0 m/S 763 mmHg 63%
11:00 +16°C° 0 mm 0 m/S 763 mmHg 59%
12:00 +17°C° 0 mm 0 m/S 763 mmHg 54%
13:00 +19°C° 0 mm 1 m/S 763 mmHg 55%
14:00 +19°C° 0 mm 1 m/S 763 mmHg 56%
15:00 +19°C° 0 mm 1 m/S 763 mmHg 56%
16:00 +16°C° 0 mm 1 m/S 763 mmHg 61%
17:00 +15°C° 0 mm 1 m/S 763 mmHg 66%
18:00 +13°C° 0 mm 1 m/S 763 mmHg 70%
19:00 +13°C° 0 mm 1 m/S 763 mmHg 73%
20:00 +12°C° 0 mm 1 m/S 763 mmHg 76%
21:00 +11°C° 0 mm 1 m/S 763 mmHg 79%
22:00 +11°C° 0 mm 1 m/S 763 mmHg 81%
23:00 +11°C° 0 mm 1 m/S 763 mmHg 82%

3 Oktober, Samstag

Zeit Temperatur Niederschläge Wind Luftdruck Luftfeuchtigkeit
00:00 +10°C° 0 mm 1 m/S 763 mmHg 84%
01:00 +10°C° 0 mm 1 m/S 763 mmHg 85%
02:00 +10°C° 0 mm 1 m/S 763 mmHg 85%
03:00 +9°C° 0 mm 1 m/S 763 mmHg 86%
04:00 +9°C° 0 mm 1 m/S 763 mmHg 87%
05:00 +9°C° 0 mm 1 m/S 763 mmHg 87%
06:00 +9°C° 0 mm 1 m/S 763 mmHg 88%
07:00 +10°C° 0 mm 1 m/S 763 mmHg 82%
08:00 +12°C° 0 mm 1 m/S 763 mmHg 77%
09:00 +13°C° 0 mm 1 m/S 763 mmHg 71%
10:00 +14°C° 0 mm 2 m/S 763 mmHg 67%
11:00 +16°C° 0 mm 2 m/S 763 mmHg 62%
12:00 +17°C° 0 mm 2 m/S 763 mmHg 58%
13:00 +17°C° 0 mm 2 m/S 763 mmHg 58%
14:00 +17°C° 0 mm 2 m/S 763 mmHg 57%
15:00 +17°C° 0 mm 2 m/S 763 mmHg 57%
16:00 +15°C° 0 mm 2 m/S 763 mmHg 64%
17:00 +14°C° 0 mm 2 m/S 763 mmHg 70%
18:00 +12°C° 0 mm 2 m/S 763 mmHg 77%
19:00 +12°C° 0 mm 2 m/S 763 mmHg 81%
20:00 +10°C° 0 mm 2 m/S 763 mmHg 84%
21:00 +9°C° 0 mm 2 m/S 763 mmHg 88%
22:00 +9°C° 0 mm 2 m/S 763 mmHg 89%
23:00 +9°C° 0 mm 2 m/S 764 mmHg 90%

4 Oktober, Sonntag

Zeit Temperatur Niederschläge Wind Luftdruck Luftfeuchtigkeit
00:00 +8°C° 0 mm 2 m/S 764 mmHg 91%
01:00 +8°C° 0 mm 2 m/S 764 mmHg 90%
02:00 +8°C° 0 mm 2 m/S 764 mmHg 90%
03:00 +8°C° 0 mm 2 m/S 764 mmHg 89%
04:00 +8°C° 0 mm 2 m/S 764 mmHg 87%
05:00 +8°C° 0 mm 2 m/S 764 mmHg 86%
06:00 +9°C° 0 mm 2 m/S 764 mmHg 84%
07:00 +9°C° 0 mm 2 m/S 764 mmHg 80%
08:00 +10°C° 0 mm 3 m/S 764 mmHg 77%
09:00 +11°C° 0 mm 3 m/S 764 mmHg 74%
10:00 +11°C° 0 mm 3 m/S 764 mmHg 68%
11:00 +12°C° 0 mm 3 m/S 764 mmHg 63%
12:00 +12°C° 0 mm 3 m/S 764 mmHg 58%
13:00 +13°C° 0 mm 2 m/S 764 mmHg 58%
14:00 +13°C° 0 mm 2 m/S 764 mmHg 57%
15:00 +13°C° 0 mm 2 m/S 764 mmHg 57%
16:00 +12°C° 0 mm 2 m/S 764 mmHg 62%
17:00 +9°C° 0 mm 2 m/S 764 mmHg 67%
18:00 +8°C° 0 mm 3 m/S 764 mmHg 72%
19:00 +7°C° 0 mm 2 m/S 764 mmHg 72%
20:00 +6°C° 0 mm 2 m/S 764 mmHg 72%
21:00 +6°C° 0 mm 2 m/S 764 mmHg 73%
22:00 +5°C° 0 mm 2 m/S 764 mmHg 75%
23:00 +5°C° 0 mm 2 m/S 764 mmHg 77%

5 Oktober, Montag

Zeit Temperatur Niederschläge Wind Luftdruck Luftfeuchtigkeit
00:00 +4°C° 0 mm 2 m/S 765 mmHg 80%
01:00 +4°C° 0 mm 2 m/S 764 mmHg 80%
02:00 +5°C° 0 mm 1 m/S 764 mmHg 81%
03:00 +5°C° 0 mm 1 m/S 764 mmHg 82%
04:00 +4°C° 0 mm 1 m/S 764 mmHg 82%
05:00 +4°C° 0 mm 1 m/S 764 mmHg 82%
06:00 +4°C° 0 mm 1 m/S 765 mmHg 82%
07:00 +5°C° 0 mm 1 m/S 764 mmHg 75%
08:00 +7°C° 0 mm 1 m/S 764 mmHg 68%
09:00 +8°C° 0 mm 1 m/S 764 mmHg 61%
10:00 +9°C° 0 mm 1 m/S 764 mmHg 56%
11:00 +10°C° 0 mm 1 m/S 764 mmHg 51%
12:00 +11°C° 0 mm 1 m/S 764 mmHg 46%
13:00 +11°C° 0 mm 1 m/S 764 mmHg 45%
14:00 +12°C° 0 mm 1 m/S 763 mmHg 44%
15:00 +12°C° 0 mm 1 m/S 763 mmHg 43%
16:00 +10°C° 0 mm 1 m/S 763 mmHg 47%
17:00 +9°C° 0 mm 1 m/S 763 mmHg 52%
18:00 +7°C° 0 mm 1 m/S 762 mmHg 56%
19:00 +6°C° 0 mm 0 m/S 762 mmHg 57%
20:00 +5°C° 0 mm 0 m/S 763 mmHg 58%
21:00 +5°C° 0 mm 0 m/S 763 mmHg 59%
22:00 +5°C° 0 mm 0 m/S 762 mmHg 60%
23:00 +4°C° 0 mm 0 m/S 762 mmHg 61%
Mehr zeigen

We Need Your Consent

Meteoprog and our Service Providers may store and access personal data such as cookies, device identifiers or other similar technologies on your device and process such data to personalise content and ads, as well as provide social media features and to analyse the traffic.

  • Store and/or access information on your device

    Cookies, device identifiers or other information can be stored or accessed on your device for the purposes indicated above.

  • Personalised ads and content, ad and content measurement, audience insights, and products development

    Ads and content can be personalised based on a profile. More data can be added to better personalise ads and content. Ad and content performance can be measured. Insights about the audience who saw the ads and content can be derived. Such data can be used to develop or improve user’s experience, systems and software.

By clicking ‘I Agree’ you will allow the use of indicated cookies, device identifiers, web beacons or other similar technologies. Your settings can be changed in the browser on your device.

For certain purposes, legitimate interests may be relied on, rather than consent. You can read more about this in our Privacy and Cookie Policy.